Weather History for KEKN - June, 2013

Change the Weather History Date:

Saturday, June 15, 2013

  Actual Average Record
Temperature  
Mean Temperature 63 °F 66 °F  
Max Temperature 76 °F 78 °F 90 °F (1994)
Min Temperature 50 °F 55 °F 37 °F (1959)
Degree Days  
Heating Degree Days 2 2  
Month to date heating degree days 12 41  
Since 1 June heating degree days 12 41  
Since 1 July heating degree days 5786 5838  
Cooling Degree Days 0 3  
Month to date cooling degree days 30 33  
Year to date cooling degree days 55 56  
Since 1 June cooling degree days 30 33  
Growing Degree Days 12 (Base 50)    
Moisture  
Dew Point 52 °F    
Average Humidity 70    
Maximum Humidity 96    
Minimum Humidity 43    
Precipitation  
Precipitation 0.00 in 0.14 in 1.90 in (1998)
Month to date precipitation 2.65 2.11  
Year to date precipitation 19.04 21.32  
Snow  
Snow 0.00 in - - ()
Month to date snowfall 0.0  
Since 1 September snowfall 77.5  
Snow Depth 0.00 in    
Sea Level Pressure  
Sea Level Pressure 30.13 in    
Wind  
Wind Speed 2 mph (West)    
Max Wind Speed 12 mph    
Max Gust Speed 16 mph    
Visibility 6 miles    
Events      
T = Trace of Precipitation, MM = Missing Value Source: NWS Daily Summary

Daily Weather History Graph

Daily Weather History Graph

Search for Another Location

Airport or City:

Trip Planner

Search our weather history database for the weather conditions in past years. The results will help you decide how hot, cold, wet, or windy it might be!

Date:

Astronomy

Jun. 15, 2013 Rise Set
Actual Time 5:53 AM EDT 8:46 PM EDT
Civil Twilight 5:21 AM EDT 9:18 PM EDT
Nautical Twilight 4:41 AM EDT 9:58 PM EDT
Astronomical Twilight 3:54 AM EDT 10:45 PM EDT
Moon 12:23 PM EDT (6/15) 12:24 AM EDT (6/15)
Length of Visible Light 15h 57m
Length of Day
14h 52m
Waxing Crescent, 39% of the Moon is Illuminated
Jun 15
Waxing Crescent
Jun 16
First Quarter
Jun 23
Full
Jun 30
Last Quarter
Jul 8
New

Hourly Weather History & Observations

Time (EDT) Temp. Dew Point Humidity Pressure Visibility Wind Dir Wind Speed Gust Speed Precip Events Conditions
12:51 AM 52.0 °F 50.0 °F 93% 30.13 in 5.0 mi Calm Calm - N/A   Partly Cloudy
1:47 AM 51.8 °F 48.2 °F 88% 30.12 in 3.0 mi Calm Calm - N/A   Scattered Clouds
1:51 AM 51.1 °F 50.0 °F 96% 30.12 in 3.0 mi Calm Calm - N/A   Mostly Cloudy
2:23 AM 51.8 °F 48.2 °F 88% 30.11 in 5.0 mi Calm Calm - N/A   Mostly Cloudy
2:37 AM 50.0 °F 48.2 °F 94% 30.12 in 2.5 mi Calm Calm - N/A   Mostly Cloudy
2:46 AM 50.0 °F 48.2 °F 94% 30.11 in 1.5 mi Calm Calm - N/A   Mostly Cloudy
2:51 AM 50.0 °F 48.0 °F 93% 30.12 in 1.5 mi Calm Calm - N/A   Mostly Cloudy
3:05 AM 51.8 °F 48.2 °F 88% 30.11 in 0.8 mi Calm Calm - N/A   Mist
3:35 AM 51.8 °F 50.0 °F 94% 30.10 in 2.0 mi Calm Calm - N/A   Overcast
3:43 AM 51.8 °F 50.0 °F 94% 30.11 in 6.0 mi Calm Calm - N/A   Overcast
3:51 AM 51.1 °F 50.0 °F 96% 30.11 in 5.0 mi Calm Calm - N/A   Overcast
4:51 AM 53.1 °F 51.1 °F 93% 30.12 in 4.0 mi Calm Calm - N/A   Overcast
5:36 AM 51.8 °F 51.8 °F 100% 30.14 in 1.8 mi Calm Calm - N/A   Overcast
5:51 AM 52.0 °F 50.0 °F 93% 30.14 in 2.0 mi Calm Calm - N/A   Overcast
6:02 AM 51.8 °F 50.0 °F 94% 30.14 in 4.0 mi South 3.5 mph - N/A   Overcast
6:51 AM 52.0 °F 50.0 °F 93% 30.15 in 5.0 mi Calm Calm - N/A   Overcast
7:51 AM 53.1 °F 51.1 °F 93% 30.17 in 6.0 mi Calm Calm - N/A   Overcast
8:14 AM 53.6 °F 51.8 °F 94% 30.17 in 1.8 mi WNW 3.5 mph - N/A   Overcast
8:44 AM 53.6 °F 51.8 °F 94% 30.19 in 2.5 mi Calm Calm - N/A   Overcast
8:51 AM 55.0 °F 53.1 °F 93% 30.19 in 2.0 mi Calm Calm - N/A   Overcast
9:01 AM 55.4 °F 53.6 °F 94% 30.19 in 5.0 mi Calm Calm - N/A   Overcast
9:19 AM 57.2 °F 53.6 °F 88% 30.19 in 10.0 mi Calm Calm - N/A   Scattered Clouds
9:51 AM 63.0 °F 55.9 °F 78% 30.19 in 10.0 mi Calm Calm - N/A   Partly Cloudy
10:51 AM 68.0 °F 55.0 °F 63% 30.17 in 10.0 mi Variable 3.5 mph - N/A   Mostly Cloudy
11:51 AM 71.1 °F 54.0 °F 55% 30.16 in 10.0 mi NW 8.1 mph - N/A   Scattered Clouds
12:51 PM 71.1 °F 52.0 °F 51% 30.16 in 10.0 mi West 6.9 mph - N/A   Partly Cloudy
1:51 PM 73.0 °F 52.0 °F 48% 30.14 in 10.0 mi WSW 5.8 mph - N/A   Scattered Clouds
2:51 PM 73.0 °F 51.1 °F 46% 30.12 in 10.0 mi Variable 3.5 mph - N/A   Partly Cloudy
3:51 PM 75.0 °F 52.0 °F 44% 30.11 in 10.0 mi Variable 3.5 mph - N/A   Clear
4:51 PM 75.0 °F 52.0 °F 44% 30.09 in 10.0 mi WNW 5.8 mph - N/A   Clear
5:51 PM 75.0 °F 51.1 °F 43% 30.08 in 10.0 mi WSW 4.6 mph - N/A   Clear
6:51 PM 73.9 °F 53.1 °F 48% 30.09 in 10.0 mi Variable 4.6 mph - N/A   Clear
7:51 PM 70.0 °F 53.1 °F 55% 30.11 in 10.0 mi NW 4.6 mph - N/A   Partly Cloudy
8:51 PM 63.0 °F 55.0 °F 75% 30.11 in 10.0 mi Calm Calm - N/A   Clear
9:51 PM 59.0 °F 55.0 °F 87% 30.11 in 10.0 mi Calm Calm - N/A   Clear
10:51 PM 57.9 °F 54.0 °F 87% 30.12 in 10.0 mi Calm Calm - N/A   Clear
11:51 PM 57.0 °F 54.0 °F 89% 30.12 in 10.0 mi Calm Calm - N/A   Clear